[TLELIST] Archives

 

[list_settings.list_name] Current TLEs

November 7th 2012 PDT

HST 1 20580U 90037B 12311.38332071 .00001657 00000-0 10791-3 0 1047 2 20580 028.4700 292.7077 0003654 133.7621 226.3272 15.02995751 36134 ISS (ZARYA) 1 25544U 98067A 12312.46421883 .00006455 00000-0 11567-3 0 6041 2 25544 051.6474 129.7162 0015363 254.5641 143.1998 15.51207466800271 CXO 1 25867U 99040B 12314.39690174 -.00000230 00000-0 00000+0 0 8141 2 25867 073.7887 354.2032 8714571 278.0983 359.9913 00.37804580 9709 ____________________________________________________________________ These 2-Line ...Continue Reading

[list_settings.list_name] Current TLEs

November 6th 2012 PDT

HST 1 20580U 90037B 12310.25446888 .00001708 00000-0 11155-3 0 1035 2 20580 028.4700 300.0973 0003666 121.1637 238.9237 15.02992559 35966 ISS (ZARYA) 1 25544U 98067A 12311.29791667 .00007074 00000-0 12605-3 0 5963 2 25544 051.6463 135.5049 0015523 250.1721 110.2909 15.51193645800097 CXO 1 25867U 99040B 12311.75195750 -.00000132 00000-0 00000+0 0 8138 2 25867 073.7612 354.3790 8715130 278.1241 359.8781 00.37801810 9690 ____________________________________________________________________ These 2-Line ...Continue Reading

[list_settings.list_name] Current TLEs

November 5th 2012 PDT

HST 1 20580U 90037B 12310.25446888 .00001708 00000-0 11155-3 0 1035 2 20580 028.4700 300.0973 0003666 121.1637 238.9237 15.02992559 35966 ISS (ZARYA) 1 25544U 98067A 12310.15699369 .00007220 00000-0 12855-3 0 5895 2 25544 051.6462 141.1670 0015595 245.5912 219.4447 15.51176982799910 CXO 1 25867U 99040B 12311.75195750 -.00000132 00000-0 00000+0 0 8138 2 25867 073.7612 354.3790 8715130 278.1241 359.8781 00.37801810 9690 ____________________________________________________________________ These 2-Line ...Continue Reading

[list_settings.list_name] Current TLEs

November 4th 2012 PDT

HST 1 20580U 90037B 12309.19202027 .00001889 00000-0 12474-3 0 1025 2 20580 028.4712 307.0536 0003634 111.6514 248.4489 15.02990156 35803 ISS (ZARYA) 1 25544U 98067A 12309.36480324 .00007869 00000-0 13943-3 0 5859 2 25544 051.6459 145.0996 0015601 242.8514 115.5019 15.51166919799781 CXO 1 25867U 99040B 12311.75195750 -.00000132 00000-0 00000+0 0 8138 2 25867 073.7612 354.3790 8715130 278.1241 359.8781 00.37801810 9690 ____________________________________________________________________ These 2-Line ...Continue Reading

[list_settings.list_name] Current TLEs

November 3rd 2012 PDT

HST 1 20580U 90037B 12308.19597190 .00001831 00000-0 12057-3 0 1015 2 20580 028.4709 313.5760 0003614 101.6335 258.4685 15.02986461 35654 ISS (ZARYA) 1 25544U 98067A 12308.33101852 .00029678 00000-0 50233-3 0 5777 2 25544 051.6465 150.2321 0015616 239.1926 102.5389 15.51176003799624 CXO 1 25867U 99040B 12309.10808690 -.00000218 00000-0 00000+0 0 8122 2 25867 073.7292 354.5918 8717301 278.1304 359.9184 00.37802681 9684 ____________________________________________________________________ These 2-Line ...Continue Reading

[list_settings.list_name] Current TLEs

November 2nd 2012 PDT

HST 1 20580U 90037B 12307.19991898 .00001814 00000-0 11932-3 0 1008 2 20580 028.4710 320.0979 0003557 091.3751 268.7166 15.02982901 35501 ISS (ZARYA) 1 25544U 98067A 12307.36665509 -.00000373 00000-0 17099-5 0 5714 2 25544 051.6474 155.0117 0016225 236.8132 116.2246 15.51127173799471 CXO 1 25867U 99040B 12309.10808690 -.00000218 00000-0 00000+0 0 8122 2 25867 073.7292 354.5918 8717301 278.1304 359.9184 00.37802681 9684 ____________________________________________________________________ These 2-Line ...Continue Reading

[list_settings.list_name] Current TLEs

November 1st 2012 PDT

HST 1 20580U 90037B 12306.20386483 .00001981 00000-0 13146-3 0 998 2 20580 028.4708 326.6237 0003321 086.5276 273.5640 15.02980314 35354 ISS (ZARYA) 1 25544U 98067A 12306.22728102 .00011329 00000-0 19636-3 0 5615 2 25544 051.6467 160.6675 0016511 231.8811 234.8091 15.51266527799305 CXO 1 25867U 99040B 12306.49180652 .00000000 00000-0 10000-3 0 8079 2 25867 073.7175 354.7446 8716941 278.1641 003.6835 00.37813771 9762 ____________________________________________________________________ These 2-Line ...Continue Reading

[list_settings.list_name] Current TLEs

October 31st 2012 PDT

HST 1 20580U 90037B 12305.20780807 .00002225 00000-0 14922-3 0 989 2 20580 028.4704 333.1497 0003147 076.4957 283.5887 15.02977628 35203 ISS (ZARYA) 1 25544U 98067A 12305.26142688 .00006081 00000-0 10927-3 0 5553 2 25544 051.6470 165.4628 0016374 229.1473 240.1331 15.51234545799156 CXO 1 25867U 99040B 12306.46303590 -.00000360 00000-0 00000+0 0 8114 2 25867 073.7065 354.8111 8717732 278.1304 359.7960 00.37802872 9679 ____________________________________________________________________ These 2-Line ...Continue Reading

[list_settings.list_name] Current TLEs

October 30th 2012 PDT

HST 1 20580U 90037B 12303.54770358 .00002579 00000-0 17494-3 0 972 2 20580 028.4708 344.0182 0003251 057.3041 302.7420 15.02972002 34956 ISS (ZARYA) 1 25544U 98067A 12304.22916904 .00016548 00000-0 28330-3 0 5509 2 25544 051.6482 170.5822 0016684 224.8813 236.0409 15.51231918798998 CXO 1 25867U 99040B 12306.46303590 -.00000360 00000-0 00000+0 0 8114 2 25867 073.7065 354.8111 8717732 278.1304 359.7960 00.37802872 9679 ____________________________________________________________________ These 2-Line ...Continue Reading

[list_settings.list_name] Current TLEs

October 29th 2012 PDT

HST 1 20580U 90037B 12300.22749045 .00003323 00000-0 22905-3 0 963 2 20580 028.4706 005.7541 0003217 021.9368 338.1341 15.02957108 34455 ISS (ZARYA) 1 25544U 98067A 12303.36789352 .00017033 00000-0 29165-3 0 5459 2 25544 051.6477 174.8565 0016655 221.3514 106.7073 15.51204823798851 CXO 1 25867U 99040B 12301.20419437 .00000000 00000-0 10000-3 0 8068 2 25867 073.6734 355.1179 8721852 278.1644 003.8246 00.37806898 9748 ____________________________________________________________________ These 2-Line ...Continue Reading
  • This mailing list is a public mailing list - anyone may join or leave, at any time.
  • This mailing list is announce-only.

International Space Station (ISS) / Hubble Space Telescope (HST) / Chandra X-Ray Observatory Orbital Data via EMAIL

Privacy Policy:

Private list